Ft Lauderdale, FL

6:46 AM EDT on June 21, 2018 (GMT -0400)
Fort Lauderdale-Hollywood International

Weather History for KFLL - June, 2018

Change the Weather History Date:

Wednesday, June 13, 2018

  Actual Average Record
Temperature  
Mean Temperature 82 °F 83 °F  
Max Temperature 87 °F 89 °F 96 °F (1922)
Min Temperature 77 °F 78 °F 61 °F (1920)
Degree Days  
Heating Degree Days 0 0  
Month to date heating degree days 0 0  
Since 1 June heating degree days 0 0  
Since 1 July heating degree days 141 112  
Cooling Degree Days 17 18  
Month to date cooling degree days 225 231  
Year to date cooling degree days 1629 1649  
Since 1 June cooling degree days 225 231  
Growing Degree Days 32 (Base 50)    
Moisture  
Dew Point 76 °F    
Average Humidity 83    
Maximum Humidity 100    
Minimum Humidity 65    
Precipitation  
Precipitation 0.00 in 0.32 in 3.00 in (1967)
Month to date precipitation 2.83 4.25  
Year to date precipitation 24.37 21.74  
Snow  
Snow 0.00 in - - ()
Month to date snowfall 0.0  
Since 1 June snowfall 0.0  
Since 1 July snowfall 0.0  
Snow Depth 0.00 in    
Sea Level Pressure  
Sea Level Pressure 30.07 in    
Wind  
Wind Speed 7 mph (SE)    
Max Wind Speed 16 mph    
Max Gust Speed 19 mph    
Visibility 10 miles    
Events      
T = Trace of Precipitation, MM = Missing Value Source: NWS Daily Summary

Daily Weather History Graph

Daily Weather History Graph

Search for Another Location

Airport or City:

Astronomy

Jun. 13, 2018 Rise Set
Actual Time 6:28 AM EDT 8:13 PM EDT
Civil Twilight 6:02 AM EDT 8:39 PM EDT
Nautical Twilight 5:30 AM EDT 9:10 PM EDT
Astronomical Twilight 4:57 AM EDT 9:43 PM EDT
Moon 6:20 AM EDT (6/13) 8:12 PM EDT (6/13)
Length of Visible Light 14h 37m
Length of Day
13h 45m
Waning Crescent, 0% of the Moon is Illuminated
Jun 13
Waning Crescent
Jun 13
New
Jun 20
First Quarter
Jun 28
Full
Jul 6
Last Quarter

Hourly Weather History & Observations

Time (EDT) Temp. Heat Index Dew Point Humidity Pressure Visibility Wind Dir Wind Speed Gust Speed Precip Events Conditions
12:53 AM 80.1 °F 85.8 °F 77.0 °F 90% 30.06 in 10.0 mi SSE 5.8 mph - N/A   Scattered Clouds
1:53 AM 80.1 °F 85.8 °F 77.0 °F 90% 30.04 in 10.0 mi Calm Calm - N/A   Mostly Cloudy
2:53 AM 79.0 °F - 77.0 °F 94% 30.02 in 10.0 mi Calm Calm - N/A   Mostly Cloudy
3:53 AM 78.1 °F - 78.1 °F 100% 30.01 in 10.0 mi Calm Calm - N/A   Scattered Clouds
4:53 AM 78.1 °F - 75.0 °F 90% 30.03 in 10.0 mi SE 3.5 mph - N/A   Mostly Cloudy
5:53 AM 80.1 °F 85.1 °F 75.0 °F 85% 30.04 in 10.0 mi SE 4.6 mph - N/A   Mostly Cloudy
6:53 AM 80.1 °F 85.4 °F 75.9 °F 87% 30.06 in 10.0 mi East 4.6 mph - N/A   Mostly Cloudy
7:53 AM 79.0 °F - 75.9 °F 90% 30.07 in 10.0 mi SE 12.7 mph - N/A   Overcast
8:53 AM 81.0 °F 86.7 °F 75.0 °F 82% 30.09 in 10.0 mi South 3.5 mph - N/A   Overcast
9:53 AM 82.0 °F 91.0 °F 78.1 °F 88% 30.11 in 10.0 mi South 3.5 mph - N/A   Overcast
10:53 AM 82.9 °F 90.8 °F 75.9 °F 79% 30.12 in 10.0 mi SSE 6.9 mph - N/A   Overcast
11:53 AM 84.9 °F 92.1 °F 73.9 °F 69% 30.11 in 10.0 mi ESE 5.8 mph - N/A   Overcast
12:53 PM 86.0 °F 93.8 °F 73.9 °F 67% 30.09 in 10.0 mi ESE 9.2 mph - N/A   Overcast
1:53 PM 86.0 °F 98.3 °F 78.1 °F 77% 30.10 in 10.0 mi ESE 8.1 mph - N/A   Overcast
2:53 PM 84.9 °F 95.3 °F 77.0 °F 77% 30.08 in 10.0 mi ESE 12.7 mph - N/A   Overcast
3:53 PM 82.9 °F 90.8 °F 75.9 °F 79% 30.08 in 10.0 mi SE 12.7 mph - N/A   Overcast
4:53 PM 82.9 °F 91.8 °F 77.0 °F 82% 30.06 in 10.0 mi SSE 5.8 mph - N/A   Mostly Cloudy
5:53 PM 82.0 °F 90.2 °F 77.0 °F 85% 30.04 in 10.0 mi SE 6.9 mph - N/A   Mostly Cloudy
6:53 PM 82.9 °F 90.8 °F 75.9 °F 79% 30.06 in 10.0 mi SE 9.2 mph - N/A   Mostly Cloudy
7:53 PM 82.0 °F 89.4 °F 75.9 °F 82% 30.07 in 10.0 mi SE 11.5 mph - N/A   Mostly Cloudy
8:53 PM 81.0 °F 86.2 °F 73.9 °F 79% 30.08 in 10.0 mi SE 10.4 mph - N/A   Mostly Cloudy
9:53 PM 81.0 °F 86.2 °F 73.9 °F 79% 30.07 in 10.0 mi SE 9.2 mph - N/A   Mostly Cloudy
10:53 PM 81.0 °F 86.2 °F 73.9 °F 79% 30.09 in 10.0 mi SE 10.4 mph - N/A   Mostly Cloudy
11:53 PM 81.0 °F 87.3 °F 75.9 °F 85% 30.09 in 10.0 mi SE 6.9 mph - N/A   Mostly Cloudy